STARLINK-32159, 60293

Orbit data source: Space-Track

STARLINK-32159, 60293 is a payload satellite owned by SpaceX/Seattle (US) in LEO that was launched on Sun, 28 Jul 2024 UTC via an FALCON 9 launch vehicle from the Air Force Eastern Test Range (AFETR). Payloads include a variety of satellites, spacecraft, and rockets equipped with specific instruments for various scientific and technological missions. These include communications satellites like Starlink; space stations such as the ISS; scientific satellites like the Hubble; Earth observation satellites from companies like Planet Labs, Umbra, and HawkEye 360; GPS; miniature CubeSats for education and research; and military/defense satellites.

Loading next visibility...
STARLINK-32159 details
Identifier
60293, 2024-132R
Orbit
LEO
Last TLE update17 hours ago
Origin
Flag of USSpaceX/Seattle (US)
ManufacturerSpaceX/Seattle
MissionOperational spacecraft
Bus & MotorSTARLINK V2M, Unknown motor
Mass730 kg wet, ~700 kg dry
Launch date (UTC)
2024-07-28 (6 months ago)
Launch vehicle
FALCON 9
Launch site
Air Force Eastern Test Range (AFETR)
Object type
Payload
Rocket body
Debris
Shape & HBRUnknown
Radar Cross SectionLarge (>1 m²)

Expand to show TLE details & history

TLE from 17 hours ago
0 STARLINK-32159
1 60293U 24132R   25014.49357909 -.00000800  00000-0 -14903-4 0  9991
2 60293  53.1597 199.2639 0001316  94.8740 265.2411 15.30191384 27380
Epoch: 2025-01-14T11:50Z
Definitive object data (Epoch: 2025-01-14T11:50:45.233Z)
Latitude-0.00002°
Longitude-92.62406°
Altitude476.215 km
Speed7.629 km/s
True Right ascension13h 17m 03s
True Declination0° 00' 00"
Sunlit
Object was in daylight at TLE epoch
Visualization TLE readout
Latitude-44.12012°
Longitude-142.17439°
Altitude490.942 km
Speed7.619 km/s
Apparent Right ascension13h 42m 23s
Apparent Declination-58° 14' 04"
Sunlit
Object is in daylight
Visualization observer readout
Local Sidereal Time05:28:43
Azimuth136.685° SSE
Elevation-50.168°
Doppler factor1
Orbital elements
Apogee altitude476.399 km
Perigee altitude474.595 km
Semi-major axis6,853.634 km
Eccentricity0.0001316
Inclination53.1597°
RAAN199.2639°
Arg. of periapsis94.874°
True anomaly265.22607°
Mean anomaly265.2411°
Eccentric anomaly265.23359°
Mean motion3.82527 °/min
BSTAR-0.000014903
Orbital period94.11 mins
Loading maneuver chart data...
Loading historical data...
Loading historical data...
Loading historical data...
Loading historical data...
Loading historical data...
Loading historical data...
Loading historical data...

STARLINK-32159 Visibility forecast

Observer location: undefined°, undefined

Span
Click to sort rows by Start time (UTC) header in descending order
Start Az.
Max El. time (UTC)
Max El. Az.
Max El.
End time (UTC)
End Az.
6 mins2025-01-15 14:40:36.713Z222.967° SW2025-01-15 14:43:36.713Z82.851° E43.048°2025-01-15 14:46:36.713Z52.784° ENE
4 mins2025-01-15 19:37:36.713Z340.793° N2025-01-15 19:39:36.713Z14.436° NNE15.119°2025-01-15 19:41:36.713Z50.839° ENE
5 mins2025-01-15 21:16:36.713Z324.036° NNW2025-01-15 21:18:36.713Z66.592° ENE41.25°2025-01-15 21:21:36.713Z119.571° SE
|